Find WHDW 02-04

NORAD ID: 62974 Int'l Des: 2025-030 Owner: ZXW Country: CN Constellation: xingwang operational
LEOCIRCULAR

現在のビュー

3D地球を読み込み中...

WHDW 02-04について

説明を読み込み中...

次回通過

Passes for default location (London). Set your location on the main map for personalized predictions.

高度履歴

Loading altitude history...

軌道要素

1 62974U 25030D 26149.93332929 -.00000094 00000-0 64314-4 0 9996
2 62974 50.0042 301.0922 0001105 110.9344 249.1647 13.29324228 63432
Epoch: May 29, 2026 • Age: 19 hours

現在のステータス

高度 1148.7 km
速度 7.28 km/s
衛星直下点 6.94°N, 35.28°W
打ち上げ日 Feb 11, 2025
運用期間 1.2 years
タイプ other

技術仕様

分類 Payload
質量 700.00 kg
乾燥質量 700.00 kg
総質量 700.00 kg
長さ 3.00 m
直径 1.00 m
スパン 10.00 m
形状 Box + 2 Pan
製造者 CAST
バスタイプ Xingwang C
フェーズステータス In Orbit
所有者/国 ZXW/CN

Most Searched